Regional Weather Roundup
Issued by NWS Sioux Falls, SD

Home | Current Version | Previous Version | Graphics & Text | Print | Product List | Glossary On
Versions: 1 2 3 4 5 6 7 8 9 10 11 12 13 14 15 16 17 18 19 20 21 22 23 24 25 26 27 28 29 30 31 32 33 34 35 36 37 38 39 40 41 42 43 44 45 46 47 48 49 50
000
ASUS43 KFSD 191310
RWRFSD

WEATHER ROUNDUP FOR SE SOUTH DAKOTA/SW MINNESOTA/NW IOWA
NATIONAL WEATHER SERVICE SIOUX FALLS SD
700 AM CST THU JAN 19 2017

NOTE: "FAIR" INDICATES FEW OR NO CLOUDS BELOW 12,000 FEET WITH NO
SIGNIFICANT WEATHER AND OR OBSTRUCTIONS TO VISIBILITY.


SDZ038>040-050-052>070-191400-
SOUTHEAST SOUTH DAKOTA

CITY           SKY/WX    TMP DP  RH WIND       PRES   REMARKS
BROOKINGS      CLEAR     32  30  92 S12       29.68F WCI  23
CHAMBERLAIN    CLOUDY    36  33  91 CALM      29.59S
HURON          CLOUDY    33  32  96 SE13      29.63F WCI  24
MADISON          N/A     32  32 100 S14         N/A  WCI  22
MITCHELL       CLEAR     32  32 100 SE7       29.68R WCI  26
SIOUX FALLS    CLEAR     36  33  89 S10       29.73F
WINNER         FAIR      35  28  75 S15       29.57F WCI  25
YANKTON        CLEAR     34  28  80 E8        29.71F WCI  27
$$

MNZ071-072-080-081-089-090-097-098-191400-
SOUTHWEST MINNESOTA

CITY           SKY/WX    TMP DP  RH WIND       PRES   REMARKS
JACKSON        CLEAR     32  30  93 S6        29.79S FOG     WCI  26
LUVERNE        CLEAR     32  30  93 S5        29.75F WCI  27
MARSHALL       CLEAR     37  33  85 S12       29.71F
MONTEVIDEO     CLEAR     34  34 100 S9        29.72S WCI  26
PIPESTONE      CLEAR     34  32  93 S12       29.71F WCI  25
REDWOOD FALLS  CLEAR     33  29  85 S10       29.75F WCI  25
TRACY          CLEAR     38  34  87 S14       29.72F
WINDOM           N/A     36  34  93 S10       29.77S
WORTHINGTON    CLEAR     35  33  92 S13       29.76F WCI  26
$$

IAZ001>003-012>014-020>022-031-032-NEZ013-014-SDZ071-191400-
NORTHWEST IOWA

CITY           SKY/WX    TMP DP  RH WIND       PRES   REMARKS
CHEROKEE       CLOUDY    32  32 100 SE3       29.79F FOG
DENISON        PTCLDY    34  34 100 SE6       29.78S FOG     WCI  29
ESTHERVILLE    CLEAR     30  30 100 S3        29.79S FOG
LE MARS        PTCLDY    34  32  93 SE3       29.78F
ORANGE CITY    CLEAR     34  34 100 S6        29.76F WCI  29
SHELDON        PTCLDY    34  34 100 S7        29.75F WCI  28
SIOUX CITY     PTCLDY    33  31  92 E8        29.76F WCI  26
SPENCER        CLEAR     32  31  96 S6        29.78F FOG     WCI  26
STORM LAKE     CLOUDY    32  32 100 SE6       29.79S FOG     WCI  26
$$

ABBREVIATIONS USED IN REMARKS
   TC - TEMPERATURE IN CELSIUS
  WCI - WIND CHILL INDEX
   HX - HEAT INDEX
  VSB - VISIBILITY





USA.gov is the U.S. government's official web portal to all federal, state and local government web resources and services.